This is the latest recevied weather packets stored in our database for station/object KO4T-4. If no packets are shown the sender has not sent any weather packets the latest 10 day(s).
| Time | Temp. | Humidity | Pressure | Rain* | Wind** | Luminosity | Snow |
|---|---|---|---|---|---|---|---|
| 1777898402 | 12.22° C | 79% | 1016.4 hPa | 0 mm | - | - | - |
| 1777898101 | 11.11° C | 80% | 1016.5 hPa | 0 mm | - | - | - |
| 1777897802 | 10.56° C | 82% | 1016.5 hPa | 0 mm | - | - | - |
| 1777897502 | 10° C | 83% | 1016.5 hPa | 0 mm | - | - | - |
| 1777897202 | 9.44° C | 86% | 1016.5 hPa | 0 mm | - | - | - |
| 1777896902 | 8.89° C | 85% | 1016.4 hPa | 0 mm | - | - | - |
| 1777896601 | 8.89° C | 86% | 1016.4 hPa | 0 mm | - | - | - |
| 1777896302 | 8.89° C | 86% | 1016.4 hPa | 0 mm | - | - | - |
| 1777896002 | 8.89° C | 89% | 1016.4 hPa | 0 mm | - | - | - |
| 1777895701 | 7.78° C | 91% | 1016.4 hPa | 0 mm | - | - | - |
| 1777895403 | 7.78° C | 93% | 1016.3 hPa | 0 mm | - | - | - |
| 1777895101 | 6.67° C | 94% | 1016.2 hPa | 0 mm | - | - | - |
| 1777894802 | 6.11° C | 93% | 1016.2 hPa | 0 mm | - | - | - |
| 1777894501 | 5.56° C | 93% | 1016.2 hPa | 0 mm | - | - | - |
| 1777894202 | 5.56° C | 94% | 1016.2 hPa | 0 mm | - | - | - |
| 1777893901 | 5° C | 94% | 1016.1 hPa | 0 mm | - | - | - |
| 1777893603 | 5° C | 94% | 1016 hPa | 0 mm | - | - | - |
| 1777893301 | 4.44° C | 95% | 1015.9 hPa | 0 mm | - | - | - |
| 1777893002 | 4.44° C | 95% | 1015.8 hPa | 0 mm | - | - | - |
| 1777892702 | 4.44° C | 95% | 1015.6 hPa | 0 mm | - | - | - |
| 1777892402 | 3.89° C | 95% | 1015.5 hPa | 0 mm | - | - | - |
| 1777892101 | 3.89° C | 95% | 1015.4 hPa | 0 mm | - | - | - |
| 1777891802 | 3.89° C | 94% | 1015.4 hPa | 0 mm | - | - | - |
| 1777891502 | 3.89° C | 94% | 1015.8 hPa | 0 mm | - | - | - |
| 1777891201 | 3.89° C | 94% | 1015.9 hPa | 0 mm | - | - | - |
* Rain latest hour (hover to see other rain measurements)
** Current wind speed in m/s (hover to see current wind gust speed)